Year,Month,Day,Hour,Minute,Value (Times are PST for temperature in C)
2007,05,30,00,00,14.90
2007,05,30,00,01,14.90
2007,05,30,00,02,14.90
2007,05,30,00,03,14.90
2007,05,30,00,04,14.90
2007,05,30,00,05,14.90
2007,05,30,00,06,14.90
2007,05,30,00,07,14.90
2007,05,30,00,08,14.80
2007,05,30,00,09,14.80
2007,05,30,00,10,14.80
2007,05,30,00,11,14.80
2007,05,30,00,12,14.80
2007,05,30,00,13,14.80
2007,05,30,00,14,14.80
2007,05,30,00,15,14.80
2007,05,30,00,16,14.80
2007,05,30,00,17,14.70
2007,05,30,00,18,14.70
2007,05,30,00,19,14.70
2007,05,30,00,20,14.60
2007,05,30,00,21,14.60
2007,05,30,00,22,14.60
2007,05,30,00,23,14.60
2007,05,30,00,24,14.60
2007,05,30,00,25,14.50
2007,05,30,00,26,14.50
2007,05,30,00,27,14.50
2007,05,30,00,28,14.50
2007,05,30,00,29,14.50
2007,05,30,00,30,14.40
2007,05,30,00,31,14.40
2007,05,30,00,32,14.40
2007,05,30,00,33,14.40
2007,05,30,00,34,14.40
2007,05,30,00,35,14.40
2007,05,30,00,36,14.40
2007,05,30,00,37,14.40
2007,05,30,00,38,14.40
2007,05,30,00,39,14.40
2007,05,30,00,40,14.30
2007,05,30,00,41,14.30
2007,05,30,00,42,14.30
2007,05,30,00,43,14.20
2007,05,30,00,44,14.20
2007,05,30,00,45,14.20
2007,05,30,00,46,14.20
2007,05,30,00,47,14.20
2007,05,30,00,48,14.10
2007,05,30,00,49,14.10
2007,05,30,00,50,14.10
2007,05,30,00,51,14.00
2007,05,30,00,52,14.00
2007,05,30,00,53,14.00
2007,05,30,00,54,13.90
2007,05,30,00,55,13.90
2007,05,30,00,56,13.90
2007,05,30,00,57,13.80
2007,05,30,00,58,13.80
2007,05,30,00,59,13.80
2007,05,30,01,00,13.80
2007,05,30,01,01,13.70
2007,05,30,01,02,13.70
2007,05,30,01,03,13.70
2007,05,30,01,04,13.70
2007,05,30,01,05,13.70
2007,05,30,01,06,13.70
2007,05,30,01,07,13.70
2007,05,30,01,08,13.70
2007,05,30,01,09,13.70
2007,05,30,01,10,13.70
2007,05,30,01,11,13.70
2007,05,30,01,12,13.60
2007,05,30,01,13,13.60
2007,05,30,01,14,13.60
2007,05,30,01,15,13.60
2007,05,30,01,16,13.60
2007,05,30,01,17,13.60
2007,05,30,01,18,13.60
2007,05,30,01,19,13.60
2007,05,30,01,20,13.60
2007,05,30,01,21,13.60
2007,05,30,01,22,13.70
2007,05,30,01,23,13.70
2007,05,30,01,24,13.70
2007,05,30,01,25,13.70
2007,05,30,01,26,13.70
2007,05,30,01,27,13.70
2007,05,30,01,28,13.70
2007,05,30,01,29,13.70
2007,05,30,01,30,13.70
2007,05,30,01,31,13.70
2007,05,30,01,32,13.70
2007,05,30,01,33,13.80
2007,05,30,01,34,13.80
2007,05,30,01,35,13.80
2007,05,30,01,36,13.80
2007,05,30,01,37,13.80
2007,05,30,01,38,13.90
2007,05,30,01,39,13.90
2007,05,30,01,40,13.90
2007,05,30,01,41,13.90
2007,05,30,01,42,13.90
2007,05,30,01,43,13.90
2007,05,30,01,44,13.90
2007,05,30,01,45,13.90
2007,05,30,01,46,13.90
2007,05,30,01,47,13.90
2007,05,30,01,48,14.00
2007,05,30,01,49,14.00
2007,05,30,01,50,14.00
2007,05,30,01,51,14.00
2007,05,30,01,52,14.00
2007,05,30,01,53,14.00
2007,05,30,01,54,14.00
2007,05,30,01,55,14.00
2007,05,30,01,56,14.00
2007,05,30,01,57,14.10
2007,05,30,01,58,14.10
2007,05,30,01,59,14.10
2007,05,30,02,00,14.10
2007,05,30,02,01,14.10
2007,05,30,02,02,14.10
2007,05,30,02,03,14.10
2007,05,30,02,04,14.00
2007,05,30,02,05,14.00
2007,05,30,02,06,14.00
2007,05,30,02,07,14.00
2007,05,30,02,08,14.00
2007,05,30,02,09,14.00
2007,05,30,02,10,14.00
2007,05,30,02,11,14.00
2007,05,30,02,12,14.00
2007,05,30,02,13,14.00
2007,05,30,02,14,14.00
2007,05,30,02,15,14.00
2007,05,30,02,16,14.00
2007,05,30,02,17,14.00
2007,05,30,02,18,14.00
2007,05,30,02,19,14.00
2007,05,30,02,20,14.00
2007,05,30,02,21,14.00
2007,05,30,02,22,14.00
2007,05,30,02,23,14.00
2007,05,30,02,24,14.00
2007,05,30,02,25,14.00
2007,05,30,02,26,14.10
2007,05,30,02,27,14.10
2007,05,30,02,28,14.10
2007,05,30,02,29,14.00
2007,05,30,02,30,14.00
2007,05,30,02,31,14.00
2007,05,30,02,32,14.00
2007,05,30,02,33,14.00
2007,05,30,02,34,14.00
2007,05,30,02,35,14.00
2007,05,30,02,36,14.00
2007,05,30,02,37,14.00
2007,05,30,02,38,14.00
2007,05,30,02,39,14.00
2007,05,30,02,40,14.10
2007,05,30,02,41,14.10
2007,05,30,02,42,14.10
2007,05,30,02,43,14.10
2007,05,30,02,44,14.20
2007,05,30,02,45,14.20
2007,05,30,02,46,14.20
2007,05,30,02,47,14.20
2007,05,30,02,48,14.20
2007,05,30,02,49,14.20
2007,05,30,02,50,14.20
2007,05,30,02,51,14.10
2007,05,30,02,52,14.10
2007,05,30,02,53,14.10
2007,05,30,02,54,14.10
2007,05,30,02,55,14.10
2007,05,30,02,56,14.00
2007,05,30,02,57,14.00
2007,05,30,02,58,14.00
2007,05,30,02,59,14.00
2007,05,30,03,00,14.00
2007,05,30,03,01,14.00
2007,05,30,03,02,14.00
2007,05,30,03,03,14.00
2007,05,30,03,04,14.00
2007,05,30,03,05,14.00
2007,05,30,03,06,14.00
2007,05,30,03,07,13.90
2007,05,30,03,08,13.90
2007,05,30,03,09,13.90
2007,05,30,03,10,13.90
2007,05,30,03,11,13.90
2007,05,30,03,12,13.90
2007,05,30,03,13,13.90
2007,05,30,03,14,13.90
2007,05,30,03,15,13.90
2007,05,30,03,16,13.90
2007,05,30,03,17,13.90
2007,05,30,03,18,13.90
2007,05,30,03,19,13.90
2007,05,30,03,20,13.90
2007,05,30,03,21,13.90
2007,05,30,03,22,13.90
2007,05,30,03,23,13.90
2007,05,30,03,24,13.90
2007,05,30,03,25,13.90
2007,05,30,03,26,13.90
2007,05,30,03,27,13.90
2007,05,30,03,28,13.90
2007,05,30,03,29,13.90
2007,05,30,03,30,13.90
2007,05,30,03,31,13.80
2007,05,30,03,32,13.80
2007,05,30,03,33,13.80
2007,05,30,03,34,13.90
2007,05,30,03,35,13.90
2007,05,30,03,36,13.90
2007,05,30,03,37,13.90
2007,05,30,03,38,13.90
2007,05,30,03,39,13.90
2007,05,30,03,40,13.90
2007,05,30,03,41,13.90
2007,05,30,03,42,13.90
2007,05,30,03,43,13.90
2007,05,30,03,44,13.90
2007,05,30,03,45,13.90
2007,05,30,03,46,13.90
2007,05,30,03,47,13.90
2007,05,30,03,48,13.80
2007,05,30,03,49,13.80
2007,05,30,03,50,13.80
2007,05,30,03,51,13.80
2007,05,30,03,52,13.80
2007,05,30,03,53,13.70
2007,05,30,03,54,13.70
2007,05,30,03,55,13.70
2007,05,30,03,56,13.70
2007,05,30,03,57,13.70
2007,05,30,03,58,13.60
2007,05,30,03,59,13.60
2007,05,30,04,00,13.60
2007,05,30,04,01,13.60
2007,05,30,04,02,13.60
2007,05,30,04,03,13.60
2007,05,30,04,04,13.60
2007,05,30,04,05,13.60
2007,05,30,04,06,13.60
2007,05,30,04,07,13.60
2007,05,30,04,08,13.60
2007,05,30,04,09,13.60
2007,05,30,04,10,13.60
2007,05,30,04,11,13.60
2007,05,30,04,12,13.70
2007,05,30,04,13,13.70
2007,05,30,04,14,13.70
2007,05,30,04,15,13.70
2007,05,30,04,16,13.70
2007,05,30,04,17,13.80
2007,05,30,04,18,13.80
2007,05,30,04,19,13.90
2007,05,30,04,20,13.90
2007,05,30,04,21,13.90
2007,05,30,04,22,13.90
2007,05,30,04,23,13.90
2007,05,30,04,24,13.90
2007,05,30,04,25,13.90
2007,05,30,04,26,13.80
2007,05,30,04,27,13.80
2007,05,30,04,28,13.70
2007,05,30,04,29,13.70
2007,05,30,04,30,13.70
2007,05,30,04,31,13.70
2007,05,30,04,32,13.70
2007,05,30,04,33,13.60
2007,05,30,04,34,13.60
2007,05,30,04,35,13.50
2007,05,30,04,36,13.50
2007,05,30,04,37,13.40
2007,05,30,04,38,13.40
2007,05,30,04,39,13.30
2007,05,30,04,40,13.30
2007,05,30,04,41,13.20
2007,05,30,04,42,13.20
2007,05,30,04,43,13.20
2007,05,30,04,44,13.20
2007,05,30,04,45,13.20
2007,05,30,04,46,13.00
2007,05,30,04,47,12.90
2007,05,30,04,48,12.90
2007,05,30,04,49,12.80
2007,05,30,04,50,12.80
2007,05,30,04,51,12.80
2007,05,30,04,52,12.80
2007,05,30,04,53,12.80
2007,05,30,04,54,12.70
2007,05,30,04,55,12.70
2007,05,30,04,56,12.70
2007,05,30,04,57,12.60
2007,05,30,04,58,12.60
2007,05,30,04,59,12.60
2007,05,30,05,00,12.50
2007,05,30,05,01,12.50
2007,05,30,05,02,12.50
2007,05,30,05,03,12.40
2007,05,30,05,04,12.40
2007,05,30,05,05,12.40
2007,05,30,05,06,12.30
2007,05,30,05,07,12.30
2007,05,30,05,08,12.30
2007,05,30,05,09,12.30
2007,05,30,05,10,12.20
2007,05,30,05,11,12.20
2007,05,30,05,12,12.10
2007,05,30,05,13,12.10
2007,05,30,05,14,12.10
2007,05,30,05,15,12.10
2007,05,30,05,16,12.10
2007,05,30,05,17,12.10
2007,05,30,05,18,12.10
2007,05,30,05,19,12.10
2007,05,30,05,20,12.10
2007,05,30,05,21,12.10
2007,05,30,05,22,12.10
2007,05,30,05,23,12.10
2007,05,30,05,24,12.10
2007,05,30,05,25,12.10
2007,05,30,05,26,12.10
2007,05,30,05,27,12.10
2007,05,30,05,28,12.20
2007,05,30,05,29,12.20
2007,05,30,05,30,12.10
2007,05,30,05,31,12.10
2007,05,30,05,32,12.10
2007,05,30,05,33,12.10
2007,05,30,05,34,12.10
2007,05,30,05,35,12.10
2007,05,30,05,36,12.10
2007,05,30,05,37,12.10
2007,05,30,05,38,12.10
2007,05,30,05,39,12.10
2007,05,30,05,40,12.10
2007,05,30,05,41,12.10
2007,05,30,05,42,12.10
2007,05,30,05,43,12.20
2007,05,30,05,44,12.30
2007,05,30,05,45,12.30
2007,05,30,05,46,12.40
2007,05,30,05,47,12.40
2007,05,30,05,48,12.40
2007,05,30,05,49,12.50
2007,05,30,05,50,12.50
2007,05,30,05,51,12.50
2007,05,30,05,52,12.50
2007,05,30,05,53,12.60
2007,05,30,05,54,12.60
2007,05,30,05,55,12.60
2007,05,30,05,56,12.60
2007,05,30,05,57,12.60
2007,05,30,05,58,12.60
2007,05,30,05,59,12.60
2007,05,30,06,00,12.60
2007,05,30,06,01,12.60
2007,05,30,06,02,12.60
2007,05,30,06,03,12.60
2007,05,30,06,04,12.60
2007,05,30,06,05,12.60
2007,05,30,06,06,12.60
2007,05,30,06,07,12.60
2007,05,30,06,08,12.60
2007,05,30,06,09,12.70
2007,05,30,06,10,12.70
2007,05,30,06,11,12.70
2007,05,30,06,12,12.80
2007,05,30,06,13,12.80
2007,05,30,06,14,12.80
2007,05,30,06,15,12.80
2007,05,30,06,16,12.90
2007,05,30,06,17,12.90
2007,05,30,06,18,12.90
2007,05,30,06,19,13.00
2007,05,30,06,20,13.00
2007,05,30,06,21,13.00
2007,05,30,06,22,13.10
2007,05,30,06,23,13.10
2007,05,30,06,24,13.10
2007,05,30,06,25,13.10
2007,05,30,06,26,13.10
2007,05,30,06,27,13.10
2007,05,30,06,28,13.20
2007,05,30,06,29,13.20
2007,05,30,06,30,13.30
2007,05,30,06,31,13.30
2007,05,30,06,32,13.40
2007,05,30,06,33,13.50
2007,05,30,06,34,13.60
2007,05,30,06,35,13.70
2007,05,30,06,36,13.80
2007,05,30,06,37,13.90
2007,05,30,06,38,13.90
2007,05,30,06,39,14.00
2007,05,30,06,40,14.00
2007,05,30,06,41,14.20
2007,05,30,06,42,14.20
2007,05,30,06,43,14.20
2007,05,30,06,44,14.30
2007,05,30,06,45,14.40
2007,05,30,06,46,14.50
2007,05,30,06,47,14.50
2007,05,30,06,48,14.50
2007,05,30,06,49,14.60
2007,05,30,06,50,14.70
2007,05,30,06,51,14.70
2007,05,30,06,52,14.80
2007,05,30,06,53,14.80
2007,05,30,06,54,14.90
2007,05,30,06,55,15.00
2007,05,30,06,56,15.00
2007,05,30,06,57,15.10
2007,05,30,06,58,15.10
2007,05,30,06,59,15.10
2007,05,30,07,00,15.10
2007,05,30,07,01,15.10
2007,05,30,07,02,15.10
2007,05,30,07,03,15.10
2007,05,30,07,04,15.20
2007,05,30,07,05,15.20
2007,05,30,07,06,15.20
2007,05,30,07,07,15.30
2007,05,30,07,08,15.30
2007,05,30,07,09,15.40
2007,05,30,07,10,15.50
2007,05,30,07,11,15.50
2007,05,30,07,12,15.60
2007,05,30,07,13,15.70
2007,05,30,07,14,15.80
2007,05,30,07,15,15.80
2007,05,30,07,16,15.90
2007,05,30,07,17,16.00
2007,05,30,07,18,16.10
2007,05,30,07,19,16.10
2007,05,30,07,20,16.20
2007,05,30,07,21,16.30
2007,05,30,07,22,16.40
2007,05,30,07,23,16.50
2007,05,30,07,24,16.60
2007,05,30,07,25,16.70
2007,05,30,07,26,16.80
2007,05,30,07,27,16.90
2007,05,30,07,28,17.00
2007,05,30,07,29,17.10
2007,05,30,07,30,17.10
2007,05,30,07,31,17.20
2007,05,30,07,32,17.20
2007,05,30,07,33,17.30
2007,05,30,07,34,17.40
2007,05,30,07,35,17.50
2007,05,30,07,36,17.60
2007,05,30,07,37,17.70
2007,05,30,07,38,17.80
2007,05,30,07,39,17.90
2007,05,30,07,40,18.00
2007,05,30,07,41,18.10
2007,05,30,07,42,18.10
2007,05,30,07,43,18.10
2007,05,30,07,44,18.10
2007,05,30,07,45,18.10
2007,05,30,07,46,18.10
2007,05,30,07,47,18.10
2007,05,30,07,48,18.20
2007,05,30,07,49,18.20
2007,05,30,07,50,18.20
2007,05,30,07,51,18.30
2007,05,30,07,52,18.40
2007,05,30,07,53,18.40
2007,05,30,07,54,18.40
2007,05,30,07,55,18.40
2007,05,30,07,56,18.40
2007,05,30,07,57,18.40
2007,05,30,07,58,18.50
2007,05,30,07,59,18.60
2007,05,30,08,00,18.70
2007,05,30,08,01,18.70
2007,05,30,08,02,18.90
2007,05,30,08,03,18.90
2007,05,30,08,04,18.90
2007,05,30,08,05,18.90
2007,05,30,08,06,18.90
2007,05,30,08,07,18.90
2007,05,30,08,08,18.90
2007,05,30,08,09,18.80
2007,05,30,08,10,18.80
2007,05,30,08,11,18.80
2007,05,30,08,12,18.70
2007,05,30,08,13,18.70
2007,05,30,08,14,18.70
2007,05,30,08,15,18.80
2007,05,30,08,16,18.80
2007,05,30,08,17,18.90
2007,05,30,08,18,18.90
2007,05,30,08,19,18.90
2007,05,30,08,20,19.00
2007,05,30,08,21,19.10
2007,05,30,08,22,19.10
2007,05,30,08,23,19.10
2007,05,30,08,24,19.10
2007,05,30,08,25,19.00
2007,05,30,08,26,18.90
2007,05,30,08,27,18.90
2007,05,30,08,28,18.90
2007,05,30,08,29,18.90
2007,05,30,08,30,18.90
2007,05,30,08,31,18.90
2007,05,30,08,32,18.90
2007,05,30,08,33,18.90
2007,05,30,08,34,19.00
2007,05,30,08,35,18.90
2007,05,30,08,36,18.90
2007,05,30,08,37,18.90
2007,05,30,08,38,18.90
2007,05,30,08,39,18.90
2007,05,30,08,40,18.90
2007,05,30,08,41,18.90
2007,05,30,08,42,19.00
2007,05,30,08,43,19.10
2007,05,30,08,44,19.10
2007,05,30,08,45,19.10
2007,05,30,08,46,19.20
2007,05,30,08,47,19.30
2007,05,30,08,48,19.30
2007,05,30,08,49,19.40
2007,05,30,08,50,19.40
2007,05,30,08,51,19.40
2007,05,30,08,52,19.40
2007,05,30,08,53,19.30
2007,05,30,08,54,19.30
2007,05,30,08,55,19.40
2007,05,30,08,56,19.50
2007,05,30,08,57,19.50
2007,05,30,08,58,19.60
2007,05,30,08,59,19.60
2007,05,30,09,00,19.60
2007,05,30,09,01,19.60
2007,05,30,09,02,19.60
2007,05,30,09,03,19.60
2007,05,30,09,04,19.60
2007,05,30,09,05,19.60
2007,05,30,09,06,19.60
2007,05,30,09,07,19.70
2007,05,30,09,08,19.70
2007,05,30,09,09,19.70
2007,05,30,09,10,19.70
2007,05,30,09,11,19.70
2007,05,30,09,12,19.80
2007,05,30,09,13,19.80
2007,05,30,09,14,19.80
2007,05,30,09,15,19.90
2007,05,30,09,16,19.90
2007,05,30,09,17,19.90
2007,05,30,09,18,20.10
2007,05,30,09,19,20.10
2007,05,30,09,20,20.10
2007,05,30,09,21,20.20
2007,05,30,09,22,20.20
2007,05,30,09,23,20.20
2007,05,30,09,24,20.20
2007,05,30,09,25,20.20
2007,05,30,09,26,20.30
2007,05,30,09,27,20.40
2007,05,30,09,28,20.30
2007,05,30,09,29,20.30
2007,05,30,09,30,20.30
2007,05,30,09,31,20.30
2007,05,30,09,32,20.40
2007,05,30,09,33,20.40
2007,05,30,09,34,20.40
2007,05,30,09,35,20.40
2007,05,30,09,36,20.40
2007,05,30,09,37,20.40
2007,05,30,09,38,20.50
2007,05,30,09,39,20.50
2007,05,30,09,40,20.60
2007,05,30,09,41,20.60
2007,05,30,09,42,20.60
2007,05,30,09,43,20.60
2007,05,30,09,44,20.70
2007,05,30,09,45,20.70
2007,05,30,09,46,20.70
2007,05,30,09,47,20.60
2007,05,30,09,48,20.50
2007,05,30,09,49,20.50
2007,05,30,09,50,20.50
2007,05,30,09,51,20.50
2007,05,30,09,52,20.50
2007,05,30,09,53,20.50
2007,05,30,09,54,20.50
2007,05,30,09,55,20.50
2007,05,30,09,56,20.60
2007,05,30,09,57,20.70
2007,05,30,09,58,20.70
2007,05,30,09,59,20.70
2007,05,30,10,00,20.80
2007,05,30,10,01,20.80
2007,05,30,10,02,20.90
2007,05,30,10,03,20.90
2007,05,30,10,04,21.00
2007,05,30,10,05,21.00
2007,05,30,10,06,21.00
2007,05,30,10,07,21.10
2007,05,30,10,08,21.10
2007,05,30,10,09,21.10
2007,05,30,10,10,21.10
2007,05,30,10,11,21.10
2007,05,30,10,12,21.20
2007,05,30,10,13,21.20
2007,05,30,10,14,21.20
2007,05,30,10,15,21.20
2007,05,30,10,16,21.20
2007,05,30,10,17,21.20
2007,05,30,10,18,21.20
2007,05,30,10,19,21.20
2007,05,30,10,20,21.20
2007,05,30,10,21,21.20
2007,05,30,10,22,21.10
2007,05,30,10,23,21.20
2007,05,30,10,24,21.20
2007,05,30,10,25,21.30
2007,05,30,10,26,21.30
2007,05,30,10,27,21.30
2007,05,30,10,28,21.30
2007,05,30,10,29,21.30
2007,05,30,10,30,21.30
2007,05,30,10,31,21.30
2007,05,30,10,32,21.30
2007,05,30,10,33,21.30
2007,05,30,10,34,21.30
2007,05,30,10,35,21.30
2007,05,30,10,36,21.30
2007,05,30,10,37,21.40
2007,05,30,10,38,21.40
2007,05,30,10,39,21.40
2007,05,30,10,40,21.40
2007,05,30,10,41,21.50
2007,05,30,10,42,21.40
2007,05,30,10,43,21.40
2007,05,30,10,44,21.40
2007,05,30,10,45,21.40
2007,05,30,10,46,21.40
2007,05,30,10,47,21.40
2007,05,30,10,48,21.30
2007,05,30,10,49,21.30
2007,05,30,10,50,21.30
2007,05,30,10,51,21.30
2007,05,30,10,52,21.40
2007,05,30,10,53,21.40
2007,05,30,10,54,21.60
2007,05,30,10,55,21.60
2007,05,30,10,56,21.70
2007,05,30,10,57,21.80
2007,05,30,10,58,21.90
2007,05,30,10,59,22.00
2007,05,30,11,00,22.20
2007,05,30,11,01,22.30
2007,05,30,11,02,22.30
2007,05,30,11,03,22.40
2007,05,30,11,04,22.40
2007,05,30,11,05,22.30
2007,05,30,11,06,22.30
2007,05,30,11,07,22.40
2007,05,30,11,08,22.40
2007,05,30,11,09,22.60
2007,05,30,11,10,22.70
2007,05,30,11,11,22.70
2007,05,30,11,12,22.70
2007,05,30,11,13,22.70
2007,05,30,11,14,22.80
2007,05,30,11,15,22.70
2007,05,30,11,16,22.80
2007,05,30,11,17,22.80
2007,05,30,11,18,22.90
2007,05,30,11,19,22.90
2007,05,30,11,20,22.90
2007,05,30,11,21,23.00
2007,05,30,11,22,23.20
2007,05,30,11,23,23.30
2007,05,30,11,24,23.30
2007,05,30,11,25,23.30
2007,05,30,11,26,23.40
2007,05,30,11,27,23.40
2007,05,30,11,28,23.40
2007,05,30,11,29,23.40
2007,05,30,11,30,23.30
2007,05,30,11,31,23.30
2007,05,30,11,32,23.30
2007,05,30,11,33,23.30
2007,05,30,11,34,23.30
2007,05,30,11,35,23.30
2007,05,30,11,36,23.30
2007,05,30,11,37,23.30
2007,05,30,11,38,23.30
2007,05,30,11,39,23.20
2007,05,30,11,40,23.10
2007,05,30,11,41,23.00
2007,05,30,11,42,22.80
2007,05,30,11,43,22.70
2007,05,30,11,44,22.70
2007,05,30,11,45,22.80
2007,05,30,11,46,22.80
2007,05,30,11,47,22.80
2007,05,30,11,48,22.90
2007,05,30,11,49,23.00
2007,05,30,11,50,23.20
2007,05,30,11,51,23.30
2007,05,30,11,52,23.50
2007,05,30,11,53,23.60
2007,05,30,11,54,23.70
2007,05,30,11,55,23.80
2007,05,30,11,56,24.00
2007,05,30,11,57,24.10
2007,05,30,11,58,24.10
2007,05,30,11,59,24.10
2007,05,30,12,00,24.10
2007,05,30,12,01,24.10
2007,05,30,12,02,24.20
2007,05,30,12,03,24.20
2007,05,30,12,04,24.20
2007,05,30,12,05,24.30
2007,05,30,12,06,24.40
2007,05,30,12,07,24.40
2007,05,30,12,08,24.40
2007,05,30,12,09,24.20
2007,05,30,12,10,24.10
2007,05,30,12,11,23.90
2007,05,30,12,12,23.70
2007,05,30,12,13,23.80
2007,05,30,12,14,24.00
2007,05,30,12,15,24.20
2007,05,30,12,16,24.30
2007,05,30,12,17,24.30
2007,05,30,12,18,24.30
2007,05,30,12,19,24.30
2007,05,30,12,20,24.20
2007,05,30,12,21,24.20
2007,05,30,12,22,24.20
2007,05,30,12,23,24.20
2007,05,30,12,24,24.10
2007,05,30,12,25,24.10
2007,05,30,12,26,24.20
2007,05,30,12,27,24.20
2007,05,30,12,28,24.20
2007,05,30,12,29,24.20
2007,05,30,12,30,24.30
2007,05,30,12,31,24.30
2007,05,30,12,32,24.30
2007,05,30,12,33,24.30
2007,05,30,12,34,24.40
2007,05,30,12,35,24.40
2007,05,30,12,36,24.30
2007,05,30,12,37,24.20
2007,05,30,12,38,24.10
2007,05,30,12,39,24.10
2007,05,30,12,40,24.10
2007,05,30,12,41,24.30
2007,05,30,12,42,24.30
2007,05,30,12,43,24.30
2007,05,30,12,44,24.30
2007,05,30,12,45,24.50
2007,05,30,12,46,24.60
2007,05,30,12,47,24.60
2007,05,30,12,48,24.60
2007,05,30,12,49,24.60
2007,05,30,12,50,24.60
2007,05,30,12,51,24.50
2007,05,30,12,52,24.50
2007,05,30,12,53,24.40
2007,05,30,12,54,24.50
2007,05,30,12,55,24.60
2007,05,30,12,56,24.60
2007,05,30,12,57,24.60
2007,05,30,12,58,24.60
2007,05,30,12,59,24.50
2007,05,30,13,00,24.50
2007,05,30,13,01,24.40
2007,05,30,13,02,24.40
2007,05,30,13,03,24.40
2007,05,30,13,04,24.40
2007,05,30,13,05,24.40
2007,05,30,13,06,24.40
2007,05,30,13,07,24.40
2007,05,30,13,08,24.40
2007,05,30,13,09,24.30
2007,05,30,13,10,24.30
2007,05,30,13,11,24.30
2007,05,30,13,12,24.10
2007,05,30,13,13,24.10
2007,05,30,13,14,24.10
2007,05,30,13,15,24.10
2007,05,30,13,16,24.30
2007,05,30,13,17,24.50
2007,05,30,13,18,24.50
2007,05,30,13,19,24.30
2007,05,30,13,20,24.10
2007,05,30,13,21,24.10
2007,05,30,13,22,24.10
2007,05,30,13,23,24.10
2007,05,30,13,24,24.10
2007,05,30,13,25,23.90
2007,05,30,13,26,23.80
2007,05,30,13,27,23.70
2007,05,30,13,28,23.70
2007,05,30,13,29,23.70
2007,05,30,13,30,23.60
2007,05,30,13,31,23.50
2007,05,30,13,32,23.50
2007,05,30,13,33,23.50
2007,05,30,13,34,23.60
2007,05,30,13,35,23.60
2007,05,30,13,36,23.70
2007,05,30,13,37,23.70
2007,05,30,13,38,23.90
2007,05,30,13,39,24.10
2007,05,30,13,40,24.30
2007,05,30,13,41,24.50
2007,05,30,13,42,24.40
2007,05,30,13,43,24.20
2007,05,30,13,44,24.10
2007,05,30,13,45,24.00
2007,05,30,13,46,23.90
2007,05,30,13,47,24.00
2007,05,30,13,48,23.90
2007,05,30,13,49,24.10
2007,05,30,13,50,24.20
2007,05,30,13,51,24.20
2007,05,30,13,52,24.20
2007,05,30,13,53,24.20
2007,05,30,13,54,24.20
2007,05,30,13,55,24.20
2007,05,30,13,56,24.30
2007,05,30,13,57,24.20
2007,05,30,13,58,24.30
2007,05,30,13,59,24.30
2007,05,30,14,00,24.40
2007,05,30,14,01,24.40
2007,05,30,14,02,24.40
2007,05,30,14,03,24.50
2007,05,30,14,04,24.50
2007,05,30,14,05,24.60
2007,05,30,14,06,24.60
2007,05,30,14,07,24.70
2007,05,30,14,08,24.80
2007,05,30,14,09,24.90
2007,05,30,14,10,24.80
2007,05,30,14,11,24.70
2007,05,30,14,12,24.50
2007,05,30,14,13,24.20
2007,05,30,14,14,24.00
2007,05,30,14,15,23.90
2007,05,30,14,16,24.10
2007,05,30,14,17,24.20
2007,05,30,14,18,24.20
2007,05,30,14,19,24.10
2007,05,30,14,20,24.20
2007,05,30,14,21,24.00
2007,05,30,14,22,23.80
2007,05,30,14,23,23.70
2007,05,30,14,24,23.60
2007,05,30,14,25,23.50
2007,05,30,14,26,23.60
2007,05,30,14,27,23.70
2007,05,30,14,28,23.80
2007,05,30,14,29,23.90
2007,05,30,14,30,23.90
2007,05,30,14,31,23.80
2007,05,30,14,32,23.70
2007,05,30,14,33,23.70
2007,05,30,14,34,23.60
2007,05,30,14,35,23.40
2007,05,30,14,36,23.30
2007,05,30,14,37,23.30
2007,05,30,14,38,23.10
2007,05,30,14,39,23.00
2007,05,30,14,40,22.90
2007,05,30,14,41,22.90
2007,05,30,14,42,22.80
2007,05,30,14,43,22.70
2007,05,30,14,44,22.70
2007,05,30,14,45,22.80
2007,05,30,14,46,22.80
2007,05,30,14,47,22.90
2007,05,30,14,48,22.90
2007,05,30,14,49,22.90
2007,05,30,14,50,22.90
2007,05,30,14,51,22.90
2007,05,30,14,52,22.90
2007,05,30,14,53,22.80
2007,05,30,14,54,22.80
2007,05,30,14,55,22.90
2007,05,30,14,56,23.10
2007,05,30,14,57,23.00
2007,05,30,14,58,22.90
2007,05,30,14,59,22.90
2007,05,30,15,00,22.80
2007,05,30,15,01,22.90
2007,05,30,15,02,22.90
2007,05,30,15,03,22.90
2007,05,30,15,04,23.10
2007,05,30,15,05,23.10
2007,05,30,15,06,23.20
2007,05,30,15,07,23.30
2007,05,30,15,08,23.30
2007,05,30,15,09,23.20
2007,05,30,15,10,23.20
2007,05,30,15,11,23.20
2007,05,30,15,12,23.20
2007,05,30,15,13,23.30
2007,05,30,15,14,23.30
2007,05,30,15,15,23.30
2007,05,30,15,16,23.40
2007,05,30,15,17,23.40
2007,05,30,15,18,23.50
2007,05,30,15,19,23.60
2007,05,30,15,20,23.70
2007,05,30,15,21,23.70
2007,05,30,15,22,23.70
2007,05,30,15,23,23.70
2007,05,30,15,24,23.70
2007,05,30,15,25,23.70
2007,05,30,15,26,23.70
2007,05,30,15,27,23.70
2007,05,30,15,28,23.70
2007,05,30,15,29,23.70
2007,05,30,15,30,23.80
2007,05,30,15,31,23.90
2007,05,30,15,32,23.90
2007,05,30,15,33,23.90
2007,05,30,15,34,23.80
2007,05,30,15,35,23.70
2007,05,30,15,36,23.80
2007,05,30,15,37,23.80
2007,05,30,15,38,23.70
2007,05,30,15,39,23.60
2007,05,30,15,40,23.50
2007,05,30,15,41,23.40
2007,05,30,15,42,23.30
2007,05,30,15,43,23.20
2007,05,30,15,44,23.10
2007,05,30,15,45,23.00
2007,05,30,15,46,22.90
2007,05,30,15,47,22.90
2007,05,30,15,48,22.90
2007,05,30,15,49,22.90
2007,05,30,15,50,22.90
2007,05,30,15,51,22.90
2007,05,30,15,52,22.90
2007,05,30,15,53,22.90
2007,05,30,15,54,22.70
2007,05,30,15,55,22.50
2007,05,30,15,56,22.20
2007,05,30,15,57,21.90
2007,05,30,15,58,21.70
2007,05,30,15,59,21.70
2007,05,30,16,00,21.60
2007,05,30,16,01,21.50
2007,05,30,16,02,21.30
2007,05,30,16,03,21.30
2007,05,30,16,04,21.30
2007,05,30,16,05,21.30
2007,05,30,16,06,21.40
2007,05,30,16,07,21.50
2007,05,30,16,08,21.60
2007,05,30,16,09,21.60
2007,05,30,16,10,21.70
2007,05,30,16,11,21.90
2007,05,30,16,12,21.90
2007,05,30,16,13,21.80
2007,05,30,16,14,21.80
2007,05,30,16,15,21.90
2007,05,30,16,16,21.90
2007,05,30,16,17,21.80
2007,05,30,16,18,21.70
2007,05,30,16,19,21.80
2007,05,30,16,20,21.80
2007,05,30,16,21,21.80
2007,05,30,16,22,21.80
2007,05,30,16,23,21.90
2007,05,30,16,24,22.00
2007,05,30,16,25,22.00
2007,05,30,16,26,22.20
2007,05,30,16,27,22.20
2007,05,30,16,28,22.20
2007,05,30,16,29,22.30
2007,05,30,16,30,22.40
2007,05,30,16,31,22.50
2007,05,30,16,32,22.60
2007,05,30,16,33,22.70
2007,05,30,16,34,22.80
2007,05,30,16,35,22.90
2007,05,30,16,36,22.90
2007,05,30,16,37,22.90
2007,05,30,16,38,22.80
2007,05,30,16,39,22.80
2007,05,30,16,40,22.80
2007,05,30,16,41,22.80
2007,05,30,16,42,22.80
2007,05,30,16,43,22.80
2007,05,30,16,44,22.70
2007,05,30,16,45,22.70
2007,05,30,16,46,22.70
2007,05,30,16,47,22.90
2007,05,30,16,48,22.90
2007,05,30,16,49,23.10
2007,05,30,16,50,23.10
2007,05,30,16,51,23.20
2007,05,30,16,52,23.10
2007,05,30,16,53,23.10
2007,05,30,16,54,23.10
2007,05,30,16,55,23.10
2007,05,30,16,56,23.20
2007,05,30,16,57,23.10
2007,05,30,16,58,23.00
2007,05,30,16,59,22.90
2007,05,30,17,00,23.00
2007,05,30,17,01,23.00
2007,05,30,17,02,22.90
2007,05,30,17,03,22.90
2007,05,30,17,04,22.90
2007,05,30,17,05,22.90
2007,05,30,17,06,22.90
2007,05,30,17,07,22.90
2007,05,30,17,08,22.80
2007,05,30,17,09,22.80
2007,05,30,17,10,22.90
2007,05,30,17,11,22.90
2007,05,30,17,12,23.00
2007,05,30,17,13,23.10
2007,05,30,17,14,23.20
2007,05,30,17,15,23.30
2007,05,30,17,16,23.30
2007,05,30,17,17,23.30
2007,05,30,17,18,23.30
2007,05,30,17,19,23.10